{"data":{"norad_id":68330,"epoch":"2026-05-24T23:00:37.836000Z","epoch_age_seconds":82084,"freshness":"FRESH","line1":"1 68330U 26059K   26144.95877125  .00004976  00000+0  17551-3 0  9990","line2":"2 68330  53.1598 353.9649 0001121  99.8887 260.2240 15.31036545  9857","mean_motion":15.31036545,"eccentricity":0.0001121,"inclination_deg":53.1598,"raan_deg":353.9649,"arg_perigee_deg":99.8887,"mean_anomaly_deg":260.224,"bstar":0.00017551,"rev_number":985,"period_min":94.053927367227,"perigee_km":471.95045331339,"apogee_km":473.48641510174,"semimajor_km":6850.8554342076,"source":"CELESTRAK","updated_at":"2026-05-25T13:38:21.923210Z"}}